ARIANE 5 DEB (SYLDA), 44478

Orbit data source: Space-Track

ARIANE 5 DEB (SYLDA), 44478 is space debris originally from a launch on Tue, 06 Aug 2019 UTC launched from the French Guiana (FRGUI). Debris objects in space refer to the collection of defunct objects orbiting the Earth. Examples of debris include non-operational satellites, rocket bodies, and fragments generated from explosions, collisions, or faulty payload assembly.

Loading next visibility...
Identifier
44478, 2019-049D
Orbit
Active
Country
Flag of FRFR
Related business
Manufacturer
ADS/Bremen
Mission
Spacecraft
Bus & Motor
SYLDA 5, Unknown motor
Mass
440 kg wet, 440 kg dry
Launch date (UTC)
2019-08-06 (6 years ago)
Launch vehicle
Unknown
Launch site
French Guiana (FRGUI)
Object type
Payload
Rocket body
Debris
Shape & HBR
Cyl, 2.8 m
Radar Cross Section
27.391 m², Large (>1 m²)

Expand to show TLE details & history
Last TLE update: 15 hours ago

TLE from 15 hours ago
0 ARIANE 5 DEB (SYLDA)
1 44478U 19049D   25260.59315544  .00328511  00000-0  55476-2 0  9990
2 44478   4.3245 300.9042 3314276  72.5625 320.5893  8.84417117 98242
Epoch: 2025-09-17T14:14Z
TLE epoch observation values (Epoch: 2025-09-17T14:14:08.63Z)
Latitude
-0°
Longitude
90.60131°
Altitude
1,617.235 km
Speed
7.705 km/s
True Right ascension
20h 03m 36s
True Declination
0° 00' 00"
Sunlit
Object was in daylight at epoch
Visualization orbit readout
Latitude
Unknown
Longitude
Unknown
Altitude
Unknown
Speed
Unknown
Apparent Right ascension
Unknown
Apparent Declination
Unknown
Sunlit
N/A
Visualization observer readout
Local Sidereal Time
22:15:36
Azimuth
Unknown
Elevation
Unknown
Doppler factor
Unknown
Orbital elements
Apogee altitude
6,779.555 km
Perigee altitude
228.959 km
Semi-major axis
9,882.394 km
Eccentricity
0.33143
Inclination
4.3245°
RAAN
300.9042°
Arg. of periapsis
72.5625°
True anomaly
287.44574°
Mean anomaly
320.5893°
Eccentric anomaly
305.0421°
Mean motion
2.20928 °/min
Orbital period
162.95 mins
BSTAR
0.0055476
Loading maneuver chart data...
Computing Atmospheric mass density...
Loading historical data...
Loading historical data...
Loading historical data...
Loading historical data...
Loading historical data...
Loading historical data...
Loading historical data...
Other satellites on launch #49 in the year 2019 (2019-08-06 UTC)

Documentation

Showing up to 5 results
|